Погода в Ринтала

Россия / Республика Карелия     61°17′20″N   29°22′24″E
темп.,
°C
ветер,
м/с
пор.,
м/с
влажн.,
%
обл.,
%
осадки,
мм/ч
давл.,
гПа
погр.,
м
19 сентября, вс
вс1900:00+7всв3882100 0.1 1029477
03:00+6всв3884100 0.3 1029435
06:00+3св2792100 0.0 1030194
09:00+6в377099 0.0 10301205
12:00+7в4759100 0.0 10301347
15:00+8в4758100 0.0 10301342
18:00+7всв4761100 0.0 10301201
21:00+7всв3863100 0.0 1030727
20 сентября, пн
пн2000:00+5всв397315 0.0 1030633
03:00+5св398248 0.0 1030391
06:00+4всв3117947 0.0 1031562
09:00+6в597128 0.1 10311159
12:00+7в5959100 0.1 10311374
15:00+9всв5752100 0.1 10301489
18:00+8всв4756100 0.0 10291444
21:00+7всв3865100 0.0 1029715
21 сентября, вт
вт2100:00+6всв3764100 0.0 1028799
03:00+5всв3764100 0.0 1028606
06:00+5св2665100 0.0 1027400
09:00+6всв3664100 0.0 1026858
12:00+7в3459100 0.0 10251246
15:00+8в345652 0.0 10241197
18:00+7всв246419 0.0 1024211
21:00+3ссв228133 0.0 102422
22 сентября, ср
ср2200:00+2ссв23885 0.0 102451
03:00+2ссв24965 0.0 102474
06:00+1ссв23955 0.0 102461
09:00+5св237518 0.0 1023191
12:00+9в2260100 0.0 1022776
15:00+11всв1152100 0.0 10211121
18:00+8вюв2570100 0.0 1019179
21:00+4юв2286100 0.0 101829
23 сентября, чт
чт2300:00+3ююв229190 0.0 101638
03:00+2ююв239417 0.0 101352
06:00+2юв2597100 0.0 1011104
09:00+5ююв3784100 0.0 1009257
12:00+9юв4766100 0.0 1006637
15:00+10юв476299 0.0 1003828
18:00+8вюв487592 0.0 1001535
21:00+6вюв3884100 0.0 999437